| time (UTC) | temp F | wind direction | speed MPH | gust MPH | rain 1hr in | rain 24hr in | rain mn in | humidity % | barometer mb |
| 20260901042143 | 76 | 242 | 0.0 | 0.0 | 0.00 | 0.00 | 0.00 | 84 | 1017.8 |
| 20260901041641 | 76 | 242 | 0.0 | 0.0 | 0.00 | 0.00 | 0.00 | 84 | 1017.8 |
| 20260901041141 | 76 | 242 | 0.0 | 0.0 | 0.00 | 0.00 | 0.00 | 84 | 1017.8 |
| 20260901040636 | 76 | 242 | 0.0 | 0.0 | 0.00 | 0.00 | 0.00 | 84 | 1017.8 |
| 20260901040136 | 76 | 242 | 0.0 | 0.0 | 0.00 | 0.00 | 0.00 | 84 | 1017.8 |
| 20260901035633 | 76 | 242 | 0.0 | 0.0 | 0.00 | 0.00 | 0.00 | 84 | 1017.8 |
| 20260901035129 | 76 | 242 | 0.0 | 0.0 | 0.00 | 0.00 | 0.00 | 83 | 1017.7 |
| 20260901034626 | 76 | 242 | 0.0 | 0.0 | 0.00 | 0.00 | 0.00 | 83 | 1017.7 |
| 20260901034128 | 76 | 242 | 0.0 | 0.0 | 0.00 | 0.00 | 0.00 | 83 | 1017.7 |
| 20260901033626 | 77 | 242 | 0.0 | 0.0 | 0.00 | 0.00 | 0.00 | 82 | 1017.7 |
| 20260901033126 | 77 | 242 | 0.0 | 0.0 | 0.00 | 0.00 | 0.00 | 82 | 1017.7 |
| 20260901032850 | 77 | 242 | 0.0 | 0.0 | 0.00 | 0.00 | 0.00 | 82 | 1017.6 |
| 20260901032120 | 77 | 242 | 0.0 | 0.0 | 0.00 | 0.00 | 0.00 | 82 | 1017.7 |
| 20260901031846 | 77 | 242 | 0.0 | 0.0 | 0.00 | 0.00 | 0.00 | 82 | 1017.7 |
| 20260901031344 | 77 | 242 | 0.0 | 0.0 | 0.00 | 0.00 | 0.00 | 81 | 1017.7 |
| 20260901030614 | 77 | 242 | 0.0 | 0.0 | 0.00 | 0.00 | 0.00 | 81 | 1017.7 |
| 20260901030114 | 77 | 242 | 0.0 | 0.0 | 0.00 | 0.00 | 0.00 | 81 | 1017.6 |
| 20260901025613 | 77 | 242 | 0.0 | 0.0 | 0.00 | 0.00 | 0.00 | 81 | 1017.7 |
| 20260901025107 | 77 | 242 | 0.0 | 0.0 | 0.00 | 0.00 | 0.00 | 81 | 1017.6 |
| 20260901024604 | 78 | 242 | 0.0 | 0.0 | 0.00 | 0.00 | 0.00 | 81 | 1017.4 |
| 20260901024323 | 78 | 242 | 0.0 | 0.0 | 0.00 | 0.00 | 0.00 | 81 | 1017.4 |
| 20260901023558 | 78 | 242 | 0.0 | 0.0 | 0.00 | 0.00 | 0.00 | 80 | 1017.6 |
| 20260901023320 | 78 | 242 | 0.0 | 0.0 | 0.00 | 0.00 | 0.00 | 80 | 1017.4 |
| 20260901022558 | 78 | 242 | 0.0 | 0.0 | 0.00 | 0.00 | 0.00 | 80 | 1017.3 |
| 20260901022056 | 78 | 242 | 0.0 | 0.0 | 0.00 | 0.00 | 0.00 | 79 | 1017.3 |
| 20260901021554 | 79 | 242 | 0.0 | 0.0 | 0.00 | 0.00 | 0.00 | 79 | 1017.3 |
| 20260901021048 | 79 | 242 | 0.0 | 0.0 | 0.00 | 0.00 | 0.00 | 78 | 1017.2 |
| 20260901020547 | 79 | 242 | 0.0 | 0.0 | 0.00 | 0.00 | 0.00 | 78 | 1017.2 |
| 20260901020100 | 80 | 242 | 0.0 | 0.0 | 0.00 | 0.00 | 0.00 | 78 | 1017.2 |
| 20260901015544 | 80 | 242 | 0.0 | 0.0 | 0.00 | 0.00 | 0.00 | 77 | 1017.1 |
| 20260901015044 | 80 | 242 | 0.0 | 0.0 | 0.00 | 0.00 | 0.00 | 77 | 1017.0 |
| 20260901014543 | 80 | 242 | 0.0 | 0.0 | 0.00 | 0.00 | 0.00 | 77 | 1017.1 |
| 20260901014039 | 80 | 242 | 0.0 | 0.0 | 0.00 | 0.00 | 0.00 | 77 | 1017.0 |
| 20260901013552 | 80 | 242 | 0.0 | 0.0 | 0.00 | 0.00 | 0.00 | 77 | 1017.1 |
| 20260901013039 | 80 | 242 | 0.0 | 0.0 | 0.00 | 0.00 | 0.00 | 77 | 1017.0 |
| 20260901012539 | 80 | 242 | 0.0 | 0.0 | 0.00 | 0.00 | 0.00 | 77 | 1017.0 |
| 20260901012040 | 81 | 242 | 0.0 | 0.0 | 0.00 | 0.00 | 0.00 | 76 | 1017.0 |
| 20260901011551 | 81 | 242 | 0.0 | 0.0 | 0.00 | 0.00 | 0.00 | 76 | 1016.9 |
| 20260901011039 | 82 | 242 | 0.0 | 0.0 | 0.00 | 0.00 | 0.00 | 74 | 1016.9 |
| 20260901010535 | 82 | 242 | 0.0 | 0.0 | 0.00 | 0.00 | 0.00 | 73 | 1016.7 |
| 20260901010030 | 82 | 242 | 0.0 | 0.0 | 0.00 | 0.00 | 0.00 | 73 | 1016.7 |
| 20260901005529 | 83 | 242 | 0.0 | 0.0 | 0.00 | 0.00 | 0.00 | 73 | 1016.7 |
| 20260901005029 | 83 | 242 | 0.0 | 0.0 | 0.00 | 0.00 | 0.00 | 72 | 1016.7 |
| 20260901004023 | 84 | 242 | 0.0 | 0.0 | 0.00 | 0.00 | 0.00 | 71 | 1016.6 |
| 20260901003524 | 84 | 242 | 0.0 | 0.0 | 0.00 | 0.00 | 0.00 | 71 | 1016.6 |
| 20260901003022 | 85 | 242 | 0.0 | 0.0 | 0.00 | 0.00 | 0.00 | 70 | 1016.6 |
| 20260901002521 | 85 | 242 | 0.0 | 0.0 | 0.00 | 0.00 | 0.00 | 70 | 1016.6 |
| 20260901002023 | 85 | 242 | 0.0 | 0.0 | 0.00 | 0.00 | 0.00 | 70 | 1016.6 |
| 20260901001742 | 85 | 242 | 0.0 | 0.0 | 0.00 | 0.00 | 0.00 | 69 | 1016.5 |
| 20260901001241 | 86 | 242 | 0.0 | 0.0 | 0.00 | 0.00 | 0.00 | 68 | 1016.5 |
| 20260901000520 | 87 | 242 | 0.0 | 0.0 | 0.00 | 0.00 | 0.00 | 66 | 1016.6 |
| 20260901000014 | 87 | 242 | 0.0 | 0.0 | 0.00 | 0.00 | 0.00 | 65 | 1016.5 |
| 20260831235013 | 87 | 242 | 0.0 | 0.0 | 0.00 | 0.00 | 0.00 | 63 | 1016.5 |
| 20260831234007 | 89 | 242 | 0.0 | 0.0 | 0.00 | 0.00 | 0.00 | 59 | 1016.6 |
| 20260831233509 | 89 | 242 | 0.0 | 0.0 | 0.00 | 0.00 | 0.00 | 58 | 1016.5 |
| 20260831233002 | 90 | 242 | 0.0 | 1.0 | 0.00 | 0.00 | 0.00 | 57 | 1016.5 |
| 20260831232501 | 90 | 242 | 0.0 | 1.0 | 0.00 | 0.00 | 0.00 | 55 | 1016.6 |
| 20260831232002 | 91 | 242 | 0.0 | 1.0 | 0.00 | 0.00 | 0.00 | 54 | 1016.6 |
| 20260831231459 | 91 | 242 | 0.0 | 1.0 | 0.00 | 0.00 | 0.00 | 53 | 1016.5 |
| 20260831230955 | 92 | 242 | 0.0 | 1.0 | 0.00 | 0.00 | 0.00 | 51 | 1016.6 |
| 20260831230455 | 92 | 242 | 0.0 | 1.0 | 0.00 | 0.00 | 0.00 | 51 | 1016.6 |
| 20260831225953 | 92 | 242 | 0.0 | 2.0 | 0.00 | 0.00 | 0.00 | 50 | 1016.5 |
| 20260831225454 | 92 | 302 | 0.0 | 2.0 | 0.00 | 0.00 | 0.00 | 51 | 1016.6 |
| 20260831224953 | 92 | 304 | 0.0 | 2.0 | 0.00 | 0.00 | 0.00 | 50 | 1016.6 |
| 20260831224450 | 92 | 304 | 0.0 | 3.0 | 0.00 | 0.00 | 0.00 | 50 | 1016.7 |
| 20260831223950 | 93 | 304 | 0.0 | 3.0 | 0.00 | 0.00 | 0.00 | 51 | 1016.7 |
| 20260831223447 | 93 | 279 | 0.0 | 3.0 | 0.00 | 0.00 | 0.00 | 50 | 1016.7 |
| 20260831222946 | 93 | 300 | 0.0 | 2.0 | 0.00 | 0.00 | 0.00 | 50 | 1016.8 |
| 20260831222444 | 93 | 300 | 0.0 | 2.0 | 0.00 | 0.00 | 0.00 | 50 | 1016.9 |
| 20260831221942 | 93 | 236 | 0.0 | 2.0 | 0.00 | 0.00 | 0.00 | 49 | 1017.0 |
| 20260831221443 | 93 | 238 | 0.0 | 2.0 | 0.00 | 0.00 | 0.00 | 49 | 1017.0 |
| 20260831220943 | 93 | 238 | 0.0 | 2.0 | 0.00 | 0.00 | 0.00 | 50 | 1017.1 |
| 20260831220442 | 94 | 238 | 0.0 | 2.0 | 0.00 | 0.00 | 0.00 | 50 | 1017.1 |
| 20260831220204 | 93 | 261 | 0.0 | 2.0 | 0.00 | 0.00 | 0.00 | 51 | 1017.2 |
| 20260831215444 | 94 | 223 | 1.0 | 2.0 | 0.00 | 0.00 | 0.00 | 49 | 1017.2 |
| 20260831214936 | 94 | 223 | 1.0 | 2.0 | 0.00 | 0.00 | 0.00 | 49 | 1017.3 |
| 20260831214436 | 94 | 279 | 0.0 | 2.0 | 0.00 | 0.00 | 0.00 | 48 | 1017.3 |
| 20260831213938 | 94 | 358 | 0.0 | 3.0 | 0.00 | 0.00 | 0.00 | 47 | 1017.4 |
| 20260831213654 | 94 | 352 | 1.0 | 3.0 | 0.00 | 0.00 | 0.00 | 48 | 1017.4 |
| 20260831212933 | 95 | 154 | 1.0 | 3.0 | 0.00 | 0.00 | 0.00 | 49 | 1017.4 |
| 20260831212434 | 95 | 298 | 1.0 | 4.0 | 0.00 | 0.00 | 0.00 | 48 | 1017.4 |
| 20260831212155 | 95 | 310 | 1.0 | 4.0 | 0.00 | 0.00 | 0.00 | 47 | 1017.4 |
| 20260831211436 | 95 | 287 | 0.0 | 3.0 | 0.00 | 0.00 | 0.00 | 48 | 1017.4 |
| 20260831211152 | 94 | 300 | 1.0 | 2.0 | 0.00 | 0.00 | 0.00 | 48 | 1017.6 |
| 20260831210433 | 95 | 300 | 1.0 | 2.0 | 0.00 | 0.00 | 0.00 | 48 | 1017.6 |
| 20260831205931 | 95 | 326 | 0.0 | 3.0 | 0.00 | 0.00 | 0.00 | 47 | 1017.6 |
| 20260831205653 | 95 | 300 | 1.0 | 3.0 | 0.00 | 0.00 | 0.00 | 47 | 1017.6 |
| 20260831205145 | 95 | 317 | 1.0 | 3.0 | 0.00 | 0.00 | 0.00 | 49 | 1017.7 |
| 20260831204425 | 95 | 318 | 1.0 | 3.0 | 0.00 | 0.00 | 0.00 | 47 | 1017.7 |
| 20260831204147 | 95 | 304 | 1.0 | 3.0 | 0.00 | 0.00 | 0.00 | 48 | 1017.8 |
| 20260831203419 | 94 | 293 | 1.0 | 3.0 | 0.00 | 0.00 | 0.00 | 48 | 1017.8 |
| 20260831202930 | 95 | 306 | 1.0 | 3.0 | 0.00 | 0.00 | 0.00 | 48 | 1017.8 |
| 20260831202417 | 96 | 0 | 1.0 | 6.0 | 0.00 | 0.00 | 0.00 | 48 | 1017.7 |
| 20260831201928 | 97 | 308 | 1.0 | 6.0 | 0.00 | 0.00 | 0.00 | 47 | 1017.8 |
| 20260831201414 | 95 | 335 | 1.0 | 5.0 | 0.00 | 0.00 | 0.00 | 49 | 1017.9 |
| 20260831200913 | 94 | 294 | 1.0 | 4.0 | 0.00 | 0.00 | 0.00 | 53 | 1018.0 |
| 20260831200411 | 95 | 308 | 1.0 | 4.0 | 0.00 | 0.00 | 0.00 | 47 | 1018.1 |
| 20260831200136 | 95 | 330 | 1.0 | 4.0 | 0.00 | 0.00 | 0.00 | 50 | 1018.2 |
| 20260831195406 | 95 | 9 | 1.0 | 7.0 | 0.00 | 0.00 | 0.00 | 49 | 1018.2 |
| 20260831194908 | 94 | 349 | 1.0 | 7.0 | 0.00 | 0.00 | 0.00 | 51 | 1018.2 |
| 20260831194359 | 94 | 281 | 1.0 | 3.0 | 0.00 | 0.00 | 0.00 | 51 | 1018.3 |
| 20260831193859 | 94 | 91 | 1.0 | 4.0 | 0.00 | 0.00 | 0.00 | 51 | 1018.4 |
| 20260831193357 | 94 | 294 | 1.0 | 4.0 | 0.00 | 0.00 | 0.00 | 51 | 1018.4 |
| 20260831192855 | 94 | 316 | 1.0 | 6.0 | 0.00 | 0.00 | 0.00 | 49 | 1018.4 |
| 20260831192354 | 96 | 297 | 2.0 | 6.0 | 0.00 | 0.00 | 0.00 | 46 | 1018.4 |
| 20260831191346 | 96 | 316 | 2.0 | 5.0 | 0.00 | 0.00 | 0.00 | 49 | 1018.5 |
| 20260831190847 | 94 | 302 | 1.0 | 4.0 | 0.00 | 0.00 | 0.00 | 50 | 1018.5 |
| 20260831190606 | 94 | 149 | 2.0 | 4.0 | 0.00 | 0.00 | 0.00 | 50 | 1018.6 |
| 20260831185845 | 95 | 289 | 2.0 | 4.0 | 0.00 | 0.00 | 0.00 | 51 | 1018.6 |
| 20260831185109 | 94 | 153 | 2.0 | 5.0 | 0.00 | 0.00 | 0.00 | 50 | 1018.6 |
| 20260831184345 | 93 | 306 | 2.0 | 6.0 | 0.00 | 0.00 | 0.00 | 53 | 1018.8 |
| 20260831183843 | 94 | 4 | 2.0 | 6.0 | 0.00 | 0.00 | 0.00 | 50 | 1018.9 |
| 20260831183603 | 93 | 298 | 1.0 | 4.0 | 0.00 | 0.00 | 0.00 | 54 | 1018.9 |
| 20260831182842 | 93 | 262 | 1.0 | 4.0 | 0.00 | 0.00 | 0.00 | 53 | 1018.9 |
| 20260831182339 | 92 | 323 | 1.0 | 4.0 | 0.00 | 0.00 | 0.00 | 55 | 1018.9 |
| 20260831181834 | 92 | 294 | 1.0 | 4.0 | 0.00 | 0.00 | 0.00 | 55 | 1019.0 |
| 20260831181336 | 93 | 310 | 1.0 | 4.0 | 0.00 | 0.00 | 0.00 | 55 | 1019.0 |
| 20260831180834 | 93 | 304 | 1.0 | 5.0 | 0.00 | 0.00 | 0.00 | 53 | 1019.0 |
| 20260831180333 | 93 | 308 | 2.0 | 5.0 | 0.00 | 0.00 | 0.00 | 53 | 1019.0 |
| 20260831175832 | 93 | 302 | 1.0 | 4.0 | 0.00 | 0.00 | 0.00 | 54 | 1019.0 |
| 20260831175331 | 92 | 283 | 1.0 | 4.0 | 0.00 | 0.00 | 0.00 | 54 | 1019.0 |
| 20260831174831 | 92 | 274 | 1.0 | 4.0 | 0.00 | 0.00 | 0.00 | 55 | 1019.1 |
| 20260831174328 | 92 | 317 | 1.0 | 4.0 | 0.00 | 0.00 | 0.00 | 53 | 1019.2 |
| 20260831173828 | 92 | 265 | 2.0 | 6.0 | 0.00 | 0.00 | 0.00 | 56 | 1019.3 |
| 20260831173325 | 92 | 306 | 2.0 | 6.0 | 0.00 | 0.00 | 0.00 | 54 | 1019.4 |
| 20260831172826 | 92 | 298 | 1.0 | 7.0 | 0.00 | 0.00 | 0.00 | 54 | 1019.3 |
| 20260831172323 | 92 | 6 | 1.0 | 7.0 | 0.00 | 0.00 | 0.00 | 57 | 1019.3 |
| 20260831172044 | 92 | 225 | 1.0 | 3.0 | 0.00 | 0.00 | 0.00 | 54 | 1019.4 |
| 20260831171320 | 92 | 254 | 1.0 | 7.0 | 0.00 | 0.00 | 0.00 | 56 | 1019.5 |
| 20260831170821 | 92 | 257 | 1.0 | 7.0 | 0.00 | 0.00 | 0.00 | 55 | 1019.6 |
| 20260831170321 | 92 | 203 | 1.0 | 4.0 | 0.00 | 0.00 | 0.00 | 55 | 1019.5 |
| 20260831165821 | 91 | 219 | 1.0 | 4.0 | 0.00 | 0.00 | 0.00 | 57 | 1019.7 |
| 20260831165320 | 91 | 283 | 1.0 | 3.0 | 0.00 | 0.00 | 0.00 | 57 | 1019.6 |
| 20260831164815 | 91 | 353 | 1.0 | 3.0 | 0.00 | 0.00 | 0.00 | 56 | 1019.7 |
| 20260831164543 | 91 | 280 | 1.0 | 4.0 | 0.00 | 0.00 | 0.00 | 58 | 1019.8 |
| 20260831163817 | 91 | 294 | 2.0 | 4.0 | 0.00 | 0.00 | 0.00 | 57 | 1019.8 |
| 20260831163315 | 90 | 317 | 1.0 | 4.0 | 0.00 | 0.00 | 0.00 | 58 | 1019.9 |
| 20260831162816 | 90 | 262 | 1.0 | 3.0 | 0.00 | 0.00 | 0.00 | 58 | 1019.9 |
| 20260831162532 | 90 | 199 | 2.0 | 10.0 | 0.00 | 0.00 | 0.00 | 59 | 1019.9 |
| 20260831161808 | 90 | 283 | 2.0 | 10.0 | 0.00 | 0.00 | 0.00 | 59 | 1020.0 |
| 20260831161311 | 90 | 176 | 2.0 | 4.0 | 0.00 | 0.00 | 0.00 | 61 | 1020.0 |
| 20260831160806 | 89 | 304 | 2.0 | 6.0 | 0.00 | 0.00 | 0.00 | 60 | 1019.9 |
| 20260831160306 | 89 | 288 | 2.0 | 6.0 | 0.00 | 0.00 | 0.00 | 61 | 1020.0 |
| 20260831155804 | 89 | 316 | 1.0 | 5.0 | 0.00 | 0.00 | 0.00 | 62 | 1020.0 |
| 20260831155306 | 89 | 317 | 1.0 | 4.0 | 0.00 | 0.00 | 0.00 | 63 | 1020.0 |
| 20260831155030 | 88 | 175 | 1.0 | 4.0 | 0.00 | 0.00 | 0.00 | 62 | 1020.0 |
| 20260831154300 | 88 | 273 | 1.0 | 3.0 | 0.00 | 0.00 | 0.00 | 63 | 1020.0 |
| 20260831153801 | 88 | 239 | 1.0 | 6.0 | 0.00 | 0.00 | 0.00 | 64 | 1020.0 |
| 20260831153256 | 87 | 299 | 1.0 | 6.0 | 0.00 | 0.00 | 0.00 | 64 | 1020.0 |
| 20260831152756 | 87 | 308 | 1.0 | 7.0 | 0.00 | 0.00 | 0.00 | 65 | 1020.0 |
| 20260831152255 | 87 | 311 | 3.0 | 7.0 | 0.00 | 0.00 | 0.00 | 65 | 1020.0 |
| 20260831151753 | 87 | 301 | 2.0 | 7.0 | 0.00 | 0.00 | 0.00 | 64 | 1020.0 |
| 20260831151251 | 86 | 319 | 2.0 | 6.0 | 0.00 | 0.00 | 0.00 | 65 | 1020.0 |
| 20260831150752 | 86 | 301 | 2.0 | 5.0 | 0.00 | 0.00 | 0.00 | 66 | 1020.0 |
| 20260831145746 | 85 | 310 | 1.0 | 4.0 | 0.00 | 0.00 | 0.00 | 68 | 1020.0 |
| 20260831145243 | 85 | 344 | 1.0 | 4.0 | 0.00 | 0.00 | 0.00 | 68 | 1019.9 |
| 20260831144742 | 85 | 222 | 1.0 | 4.0 | 0.00 | 0.00 | 0.00 | 67 | 1020.0 |
| 20260831144503 | 85 | 119 | 1.0 | 5.0 | 0.00 | 0.00 | 0.00 | 69 | 1020.0 |
| 20260831143235 | 84 | 300 | 1.0 | 4.0 | 0.00 | 0.00 | 0.00 | 69 | 1020.0 |
| 20260831142735 | 84 | 305 | 1.0 | 7.0 | 0.00 | 0.00 | 0.00 | 70 | 1020.0 |
| 20260831142237 | 83 | 302 | 1.0 | 7.0 | 0.00 | 0.00 | 0.00 | 70 | 1019.9 |
| 20260831141732 | 83 | 327 | 1.0 | 4.0 | 0.00 | 0.00 | 0.00 | 72 | 1019.8 |
| 20260831141231 | 83 | 287 | 0.0 | 4.0 | 0.00 | 0.00 | 0.00 | 72 | 1019.8 |
| 20260831140949 | 82 | 21 | 0.0 | 2.0 | 0.00 | 0.00 | 0.00 | 73 | 1019.9 |
| 20260831140231 | 81 | 8 | 0.0 | 3.0 | 0.00 | 0.00 | 0.00 | 74 | 1019.8 |
| 20260831135734 | 81 | 24 | 0.0 | 3.0 | 0.00 | 0.00 | 0.00 | 75 | 1019.8 |
| 20260831135227 | 80 | 258 | 0.0 | 2.0 | 0.00 | 0.00 | 0.00 | 77 | 1019.8 |
| 20260831134727 | 80 | 245 | 0.0 | 1.0 | 0.00 | 0.00 | 0.00 | 78 | 1019.8 |
| 20260831134228 | 80 | 245 | 0.0 | 1.0 | 0.00 | 0.00 | 0.00 | 79 | 1019.8 |
| 20260831133726 | 79 | 245 | 0.0 | 1.0 | 0.00 | 0.00 | 0.00 | 80 | 1019.8 |
| 20260831133225 | 78 | 245 | 0.0 | 1.0 | 0.00 | 0.00 | 0.00 | 82 | 1019.8 |
| 20260831132726 | 78 | 245 | 0.0 | 1.0 | 0.00 | 0.00 | 0.00 | 82 | 1019.8 |
| 20260831132443 | 77 | 245 | 0.0 | 0.0 | 0.00 | 0.00 | 0.00 | 83 | 1019.8 |
| 20260831131719 | 77 | 245 | 0.0 | 0.0 | 0.00 | 0.00 | 0.00 | 85 | 1019.7 |
| 20260831131220 | 76 | 245 | 0.0 | 0.0 | 0.00 | 0.00 | 0.00 | 85 | 1019.7 |
| 20260831130936 | 76 | 245 | 0.0 | 0.0 | 0.00 | 0.00 | 0.00 | 86 | 1019.7 |
| 20260831130212 | 76 | 245 | 0.0 | 0.0 | 0.00 | 0.00 | 0.00 | 86 | 1019.6 |
| 20260831125940 | 75 | 245 | 0.0 | 0.0 | 0.00 | 0.00 | 0.00 | 86 | 1019.6 |
| 20260831125433 | 75 | 245 | 0.0 | 0.0 | 0.00 | 0.00 | 0.00 | 87 | 1019.6 |
| 20260831124709 | 75 | 245 | 0.0 | 0.0 | 0.00 | 0.00 | 0.00 | 87 | 1019.5 |
| 20260831124209 | 74 | 245 | 0.0 | 0.0 | 0.00 | 0.00 | 0.00 | 88 | 1019.4 |
| 20260831123706 | 74 | 245 | 0.0 | 0.0 | 0.00 | 0.00 | 0.00 | 88 | 1019.5 |
| 20260831123205 | 74 | 245 | 0.0 | 0.0 | 0.00 | 0.00 | 0.00 | 88 | 1019.5 |
| 20260831122709 | 74 | 245 | 0.0 | 0.0 | 0.00 | 0.00 | 0.00 | 89 | 1019.4 |
| 20260831122200 | 73 | 245 | 0.0 | 0.0 | 0.00 | 0.00 | 0.00 | 89 | 1019.4 |
| 20260831121659 | 73 | 245 | 0.0 | 0.0 | 0.00 | 0.00 | 0.00 | 89 | 1019.3 |
| 20260831121426 | 73 | 245 | 0.0 | 0.0 | 0.00 | 0.00 | 0.00 | 89 | 1019.2 |
| 20260831120701 | 72 | 245 | 0.0 | 0.0 | 0.00 | 0.00 | 0.00 | 89 | 1019.2 |
| 20260831120159 | 72 | 245 | 0.0 | 0.0 | 0.00 | 0.00 | 0.00 | 89 | 1019.1 |
| 20260831115658 | 72 | 245 | 0.0 | 0.0 | 0.00 | 0.00 | 0.00 | 89 | 1019.1 |
| 20260831115157 | 72 | 245 | 0.0 | 0.0 | 0.00 | 0.00 | 0.00 | 89 | 1019.1 |
| 20260831114658 | 71 | 245 | 0.0 | 0.0 | 0.00 | 0.00 | 0.00 | 89 | 1019.1 |
| 20260831114158 | 71 | 245 | 0.0 | 0.0 | 0.00 | 0.00 | 0.00 | 89 | 1019.0 |
| 20260831113658 | 71 | 245 | 0.0 | 0.0 | 0.00 | 0.00 | 0.00 | 89 | 1019.0 |
| 20260831113155 | 71 | 245 | 0.0 | 0.0 | 0.00 | 0.00 | 0.00 | 89 | 1018.9 |
| 20260831112932 | 71 | 245 | 0.0 | 0.0 | 0.00 | 0.00 | 0.00 | 89 | 1018.9 |
| 20260831112153 | 71 | 245 | 0.0 | 0.0 | 0.00 | 0.00 | 0.00 | 89 | 1018.8 |
| 20260831111652 | 71 | 245 | 0.0 | 0.0 | 0.00 | 0.00 | 0.00 | 89 | 1018.7 |
| 20260831111153 | 71 | 245 | 0.0 | 0.0 | 0.00 | 0.00 | 0.00 | 89 | 1018.7 |
| 20260831110913 | 71 | 245 | 0.0 | 0.0 | 0.00 | 0.00 | 0.00 | 89 | 1018.7 |
| 20260831110147 | 71 | 245 | 0.0 | 0.0 | 0.00 | 0.00 | 0.00 | 89 | 1018.6 |
| 20260831105645 | 71 | 245 | 0.0 | 0.0 | 0.00 | 0.00 | 0.00 | 90 | 1018.6 |
| 20260831105155 | 71 | 245 | 0.0 | 0.0 | 0.00 | 0.00 | 0.00 | 90 | 1018.5 |
| 20260831104638 | 71 | 245 | 0.0 | 0.0 | 0.00 | 0.00 | 0.00 | 89 | 1018.5 |
| 20260831104139 | 71 | 245 | 0.0 | 0.0 | 0.00 | 0.00 | 0.00 | 90 | 1018.4 |
| 20260831103638 | 71 | 245 | 0.0 | 0.0 | 0.00 | 0.00 | 0.00 | 90 | 1018.5 |
| 20260831103137 | 71 | 245 | 0.0 | 0.0 | 0.00 | 0.00 | 0.00 | 90 | 1018.4 |
| 20260831102904 | 71 | 245 | 0.0 | 0.0 | 0.00 | 0.00 | 0.00 | 89 | 1018.3 |
| 20260831102134 | 71 | 245 | 0.0 | 0.0 | 0.00 | 0.00 | 0.00 | 89 | 1018.1 |
| 20260831101633 | 71 | 245 | 0.0 | 0.0 | 0.00 | 0.00 | 0.00 | 90 | 1018.1 |
| 20260831101136 | 71 | 245 | 0.0 | 0.0 | 0.00 | 0.00 | 0.00 | 89 | 1018.2 |
| 20260831100858 | 71 | 245 | 0.0 | 0.0 | 0.00 | 0.00 | 0.00 | 89 | 1018.2 |
| 20260831095631 | 71 | 245 | 0.0 | 0.0 | 0.00 | 0.00 | 0.00 | 89 | 1018.0 |
| 20260831095128 | 71 | 245 | 0.0 | 0.0 | 0.00 | 0.00 | 0.00 | 89 | 1017.9 |
| 20260831094627 | 71 | 245 | 0.0 | 0.0 | 0.00 | 0.00 | 0.00 | 89 | 1017.9 |
| 20260831094125 | 71 | 245 | 0.0 | 0.0 | 0.00 | 0.00 | 0.00 | 89 | 1017.9 |
| 20260831093119 | 71 | 245 | 0.0 | 0.0 | 0.00 | 0.00 | 0.00 | 89 | 1017.8 |
| 20260831092840 | 71 | 245 | 0.0 | 0.0 | 0.00 | 0.00 | 0.00 | 89 | 1017.8 |
| 20260831092351 | 71 | 245 | 0.0 | 0.0 | 0.00 | 0.00 | 0.00 | 89 | 1017.8 |
| 20260831091618 | 71 | 245 | 0.0 | 0.0 | 0.00 | 0.00 | 0.00 | 89 | 1017.7 |
| 20260831091333 | 71 | 245 | 0.0 | 0.0 | 0.00 | 0.00 | 0.00 | 89 | 1017.7 |
| 20260831090613 | 71 | 245 | 0.0 | 0.0 | 0.00 | 0.00 | 0.00 | 89 | 1017.7 |
| 20260831090114 | 71 | 245 | 0.0 | 0.0 | 0.00 | 0.00 | 0.00 | 89 | 1017.7 |
| 20260831085612 | 71 | 245 | 0.0 | 0.0 | 0.00 | 0.00 | 0.00 | 89 | 1017.8 |
| 20260831085334 | 71 | 245 | 0.0 | 0.0 | 0.00 | 0.00 | 0.00 | 89 | 1017.9 |
| 20260831084611 | 71 | 245 | 0.0 | 0.0 | 0.00 | 0.00 | 0.00 | 89 | 1017.8 |
| 20260831084108 | 71 | 245 | 0.0 | 0.0 | 0.00 | 0.00 | 0.00 | 89 | 1017.8 |
| 20260831083608 | 71 | 245 | 0.0 | 0.0 | 0.00 | 0.00 | 0.00 | 89 | 1017.7 |
| 20260831083108 | 71 | 245 | 0.0 | 0.0 | 0.00 | 0.00 | 0.00 | 89 | 1017.8 |
| 20260831082607 | 71 | 245 | 0.0 | 0.0 | 0.00 | 0.00 | 0.00 | 89 | 1017.8 |
| 20260831082104 | 71 | 245 | 0.0 | 0.0 | 0.00 | 0.00 | 0.00 | 88 | 1017.7 |
| 20260831081606 | 71 | 245 | 0.0 | 0.0 | 0.00 | 0.00 | 0.00 | 89 | 1017.7 |
| 20260831081058 | 71 | 245 | 0.0 | 0.0 | 0.00 | 0.00 | 0.00 | 88 | 1017.7 |
| 20260831080609 | 71 | 245 | 0.0 | 0.0 | 0.00 | 0.00 | 0.00 | 88 | 1017.6 |
| 20260831080107 | 71 | 245 | 0.0 | 0.0 | 0.00 | 0.00 | 0.00 | 88 | 1017.4 |
| 20260831075552 | 71 | 245 | 0.0 | 0.0 | 0.00 | 0.00 | 0.00 | 88 | 1017.4 |
| 20260831075052 | 72 | 245 | 0.0 | 0.0 | 0.00 | 0.00 | 0.00 | 88 | 1017.4 |
| 20260831074555 | 72 | 245 | 0.0 | 0.0 | 0.00 | 0.00 | 0.00 | 88 | 1017.4 |
| 20260831074050 | 72 | 245 | 0.0 | 0.0 | 0.00 | 0.00 | 0.00 | 88 | 1017.6 |
| 20260831073549 | 72 | 245 | 0.0 | 0.0 | 0.00 | 0.00 | 0.00 | 88 | 1017.6 |
| 20260831073048 | 72 | 245 | 0.0 | 0.0 | 0.00 | 0.00 | 0.00 | 88 | 1017.6 |
| 20260831072544 | 72 | 245 | 0.0 | 0.0 | 0.00 | 0.00 | 0.00 | 88 | 1017.7 |
| 20260831072044 | 72 | 245 | 0.0 | 0.0 | 0.00 | 0.00 | 0.00 | 88 | 1017.7 |
| 20260831071544 | 72 | 245 | 0.0 | 0.0 | 0.00 | 0.00 | 0.00 | 88 | 1017.7 |
| 20260831071036 | 72 | 245 | 0.0 | 0.0 | 0.00 | 0.00 | 0.00 | 88 | 1017.7 |
| 20260831070755 | 72 | 245 | 0.0 | 0.0 | 0.00 | 0.00 | 0.00 | 88 | 1017.7 |
| 20260831070037 | 72 | 245 | 0.0 | 0.0 | 0.00 | 0.00 | 0.00 | 88 | 1017.8 |
| 20260831065532 | 72 | 245 | 0.0 | 0.0 | 0.00 | 0.00 | 0.00 | 88 | 1017.8 |
| 20260831064531 | 72 | 245 | 0.0 | 0.0 | 0.00 | 0.00 | 0.00 | 87 | 1017.9 |
| 20260831064025 | 72 | 245 | 0.0 | 0.0 | 0.00 | 0.00 | 0.00 | 87 | 1018.0 |
| 20260831063524 | 73 | 245 | 0.0 | 0.0 | 0.00 | 0.00 | 0.00 | 87 | 1017.9 |
| 20260831063026 | 73 | 245 | 0.0 | 0.0 | 0.00 | 0.00 | 0.00 | 87 | 1017.9 |
| 20260831062526 | 73 | 245 | 0.0 | 0.0 | 0.00 | 0.00 | 0.00 | 87 | 1018.0 |
| 20260831062250 | 73 | 245 | 0.0 | 0.0 | 0.00 | 0.00 | 0.00 | 87 | 1018.0 |
| 20260831061521 | 73 | 245 | 0.0 | 0.0 | 0.00 | 0.00 | 0.00 | 87 | 1018.0 |
| 20260831061245 | 73 | 245 | 0.0 | 0.0 | 0.00 | 0.00 | 0.00 | 86 | 1018.0 |
| 20260831060746 | 73 | 245 | 0.0 | 0.0 | 0.00 | 0.00 | 0.00 | 86 | 1017.9 |
| 20260831060242 | 73 | 245 | 0.0 | 0.0 | 0.00 | 0.00 | 0.00 | 86 | 1018.0 |
| 20260831055514 | 73 | 245 | 0.0 | 0.0 | 0.00 | 0.00 | 0.00 | 86 | 1018.0 |
| 20260831055019 | 73 | 245 | 0.0 | 0.0 | 0.00 | 0.00 | 0.00 | 86 | 1018.0 |
| 20260831054514 | 73 | 245 | 0.0 | 0.0 | 0.00 | 0.00 | 0.00 | 85 | 1017.9 |
| 20260831054014 | 73 | 245 | 0.0 | 0.0 | 0.00 | 0.00 | 0.00 | 85 | 1017.9 |
| 20260831053514 | 73 | 245 | 0.0 | 0.0 | 0.00 | 0.00 | 0.00 | 85 | 1017.9 |
| 20260831053014 | 73 | 245 | 0.0 | 0.0 | 0.00 | 0.00 | 0.00 | 85 | 1018.0 |
| 20260831052522 | 74 | 245 | 0.0 | 0.0 | 0.00 | 0.00 | 0.00 | 85 | 1018.0 |
| 20260831052008 | 74 | 245 | 0.0 | 0.0 | 0.00 | 0.00 | 0.00 | 85 | 1018.0 |
| 20260831051728 | 74 | 245 | 0.0 | 0.0 | 0.00 | 0.00 | 0.00 | 85 | 1018.0 |
| 20260831051010 | 74 | 245 | 0.0 | 0.0 | 0.00 | 0.00 | 0.00 | 85 | 1018.1 |
| 20260831050503 | 74 | 245 | 0.0 | 0.0 | 0.00 | 0.00 | 0.00 | 85 | 1018.1 |
| 20260831050004 | 74 | 245 | 0.0 | 0.0 | 0.00 | 0.00 | 0.00 | 85 | 1018.0 |
| 20260831045502 | 74 | 245 | 0.0 | 0.0 | 0.00 | 0.00 | 0.00 | 85 | 1018.1 |
| 20260831045001 | 74 | 245 | 0.0 | 0.0 | 0.00 | 0.00 | 0.00 | 85 | 1018.1 |
| 20260831044727 | 74 | 245 | 0.0 | 0.0 | 0.00 | 0.00 | 0.00 | 85 | 1018.1 |
| 20260831044001 | 74 | 245 | 0.0 | 0.0 | 0.00 | 0.00 | 0.00 | 85 | 1018.0 |
| 20260831043501 | 74 | 245 | 0.0 | 0.0 | 0.00 | 0.00 | 0.00 | 85 | 1018.1 |
| 20260831042959 | 74 | 245 | 0.0 | 0.0 | 0.00 | 0.00 | 0.00 | 84 | 1018.1 |
| 20260831042456 | 74 | 245 | 0.0 | 0.0 | 0.00 | 0.00 | 0.00 | 84 | 1018.0 |